Regional Weather Roundup
Issued by NWS Boston, MA

Current Version | Previous Version | Text Only | Print | Product List | Glossary On
Versions: 1 2 3 4 5 6 7 8 9 10 11 12 13 14 15 16 17 18 19 20 21 22 23 24 25 26 27 28 29 30 31 32 33 34 35 36 37 38 39 40 41 42 43 44 45 46 47 48 49 50
000
ASUS41 KBOX 180810
RWRBOX

REGIONAL WEATHER ROUNDUP
NATIONAL WEATHER SERVICE TAUNTON MA
300 AM EST THU DEC 18 2014

NOTE:  "FAIR" INDICATES FEW OR NO CLOUDS BELOW 12,000 FEET WITH NO
SIGNIFICANT WEATHER AND/OR OBSTRUCTIONS TO VISIBILITY.  THE FOLLOWING
OBSERVATION LOCATIONS DO NOT REPORT PRESENT WEATHER...PROVINCETOWN...
SMITHFIELD...BLOCK ISLAND...KEENE...AND OXFORD.

MAZALL-180900-
EASTERN MASSACHUSETTS

CITY           SKY/WX    TMP DP  RH WIND       PRES   REMARKS
BOSTON         CLOUDY    40  31  70 W16       29.72S WCI  31
BEVERLY        CLOUDY    39  31  72 W8        29.70R
LAWRENCE       CLOUDY    38  31  76 W10       29.72R WCI  31
BEDFORD        CLOUDY    38  30  73 W9G16     29.71S WCI  31
BLUE HILL        N/A     36  30  79 W14G20    29.70R WCI  27
NORWOOD        CLOUDY    40  30  67 W9        29.73R
MARSHFIELD     CLOUDY    39  32  75 W7        29.74S
PLYMOUTH       CLOUDY    39  31  72 W8        29.73S
TAUNTON        CLOUDY    40  29  64 W7        29.74S
NEW BEDFORD    CLOUDY    39  31  72 W13       29.74S WCI  31
$$

MAZALL-180900-
CAPE COD AND THE ISLANDS

CITY           SKY/WX    TMP DP  RH WIND       PRES   REMARKS
FALMOUTH       CLOUDY    39  30  70 W16G22    29.73F WCI  30
HYANNIS        CLOUDY    40  31  70 W14G21    29.71S
CHATHAM        CLOUDY    40  32  73 VRB6      29.73R
PROVINCETOWN   CLOUDY    41  32  70 W16G22    29.71F
NANTUCKET      CLOUDY    41  32  70 W18G25    29.74R
MARTHAS VNYRD  MOCLDY    39  29  67 W15G21    29.75S WCI  31
$$

MAZALL-180900-
CENTRAL AND WESTERN MASSACHUSETTS

CITY           SKY/WX    TMP DP  RH WIND       PRES   REMARKS
WORCESTER      CLOUDY    34  28  79 W20G29    29.69S WCI  23
FITCHBURG      CLOUDY    38  29  70 NW9       29.73R WCI  31
ORANGE         CLOUDY    36  28  73 W8        29.74S WCI  30
SPRINGFIELD    MOCLDY    38  28  68 W13       29.77S WCI  30
WESTFIELD      CLOUDY    39  27  62 NW14G31   29.77S WCI  31
NORTH ADAMS    LGT SNOW  33  29  85 W14G20    29.80R FOG     WCI  23
PITTSFIELD     LGT SNOW  31  29  92 W16G32    29.77S FOG     WCI  20
$$

RIZALL-180900-
RHODE ISLAND

CITY           SKY/WX    TMP DP  RH WIND       PRES   REMARKS
PROVIDENCE     CLOUDY    39  29  67 W10       29.76S
NEWPORT        CLOUDY    38  30  73 W8        29.76S
BLOCK ISLAND   MOCLDY    41  30  65 W17G23    29.79S
SMITHFIELD     CLOUDY    37  25  60 W10       29.73S WCI  30
WESTERLY       MOCLDY    37  31  78 SW6       29.80S
$$

CTZALL-180900-
CONNECTICUT

CITY           SKY/WX    TMP DP  RH WIND       PRES   REMARKS
BRADLEY INTL   CLOUDY    40  28  62 NW10      29.79S
HARTFORD       CLOUDY    39  30  70 W9        29.81F
BRIDGEPORT     CLOUDY    41  29  62 W10       29.86R
DANBURY        CLOUDY    38  25  59 W8        29.86R
GROTON         CLOUDY    38  32  79 W9        29.80S WCI  31
NEW HAVEN      CLOUDY    44  29  55 W8        29.84R
CHESTER        MOCLDY    37  32  81 W6        29.81R
MERIDEN        CLOUDY    39  29  67 NW5       29.83R
WILLIMANTIC    CLOUDY    39  29  67 VRB5      29.78F
OXFORD         CLOUDY    37  27  65 NW9       29.82R WCI  31
$$

MEZ002-015-021-024-NHZ003-005-008-011-012-014-VTZ005-008-180900-
NORTHERN NEW ENGLAND

CITY           SKY/WX    TMP DP  RH WIND       PRES   REMARKS
PORTLAND ME    CLOUDY    38  36  92 NW3       29.64S
BANGOR ME      LGT SNOW  33  31  92 N12       29.58F FOG     WCI  24
CONCORD NH     LGT RAIN  36  32  85 W10       29.70S WCI  28
MANCHESTER NH  FLURRIES  38  31  76 W8        29.69S
NASHUA NH      MOCLDY    40  31  70 NW9       29.72S
PORTSMOUTH NH  LGT RAIN  39  34  81 W14       29.66F WCI  31
JAFFREY NH     CLOUDY    34  29  82 CALM      29.71S
KEENE NH       MOCLDY    34  32  93 CALM      29.74S
BURLINGTON VT  LGT RAIN  34  32  92 CALM      29.76R FOG
MT. WASHINGTON SNOW      14  14 100 NW45        N/A  VSB 1/16WCI -10
$$

NYZ052-076-180900-
EASTERN NEW YORK

CITY           SKY/WX    TMP DP  RH WIND       PRES   REMARKS
ALBANY         FLURRIES  35  29  78 W9        29.85R WCI  28
NEW YORK CITY  CLOUDY    40  26  57 NW21G30   29.91R WCI  30
$$

ANZALL-180900-
MARINE OBSERVATIONS

STATION/POSITION TIME  TEMP    WIND        PRES    VSBY  WAVE
                       AIR SEA DIR/SP/G                  HT/PER
                 (UTC) (F)     (DEG/KT/KT) (MB)    (MI)  (FT/S)
BOSTON BUOY      0750   41 46  280/ 19/ 23 1005.8R         4/ 8
BUZZARDS BAY     0700          290/ 23/ 26 1008.3F
NANTUCKET SOUND  0750   42 44  280/ 21/ 25 1006.2S         2/ 4
MASS BAY-STELLWA 0704   41 45  270/ 17/ 21   N/A    1 7/8  5/ 8
ISLE OF SHOALS   0700   41     280/ 20/ 22 1003.6R
S OF BLOCK IS    0708      52                N/A           6/ 6
$$

......................KEY.........................
  SKY/WX - SKY CONDITION/PRESENT WEATHER
  TMP    - TEMPERATURE IN FAHRENHEIT
  DWPT   - DEWPOINT IN FAHRENHEIT
  RH     - RELATIVE HUMIDITY IN PERCENT
  WIND   - DIRECTION AND SPEED IN MPH
  PRES   - MEAN SEA LEVEL PRESSURE IN INCHES OF HG
  WCI    - WIND CHILL INDEX
  VSB    - VISIBILITY IN MILES
  HX     - HEAT INDEX
  TC     - TEMPERATURE IN CELSIUS
  VRB    - VARIABLE WIND DIRECTION
  N/A    - NOT AVAILABLE


USA.gov is the U.S. government's official web portal to all federal, state and local government web resources and services.